Volver al catálogo

STARLINK-1131

ActivoComunicacionesVLEO
NORAD 45047·PAYLOAD·🇺🇸 United States

Lanzado Jan 29, 2020 desde Cape Canaveral Space Force Station

Loading…

Próximos Pases (próximas 24 horas)

TLE

ActualizadoSource: CelesTrak SupGP

Época: Sep 15, 2026, 01:21 UTC

1 45047C 20006D   26258.05673611  .00066466  00000+0  62738-3 0  2584
2 45047  53.1482  93.4310 0003581 129.7685  94.3293 15.66337931    15

Sigue STARLINK-1131 en tiempo real con AllMySat

Download on the App Store